Location: Codford Saint Peter
(51.1597°N, 2.0531°W)
Time: 05:21:02
(UTC+00:00)

Envisat - Pass Details

Date: 04 February 2022
Orbit: 764 x 765 km, 98.2° (Epoch: 22 May)

Event Time Altitude Azimuth Distance (km) Brightness Sun altitude
Rises 05:20:26 0° 13° (NNE) 3,244 6.4 -22.2°
Reaches altitude 10° 05:22:45 10° 13° (NNE) 2,314 5.6 -21.8°
Maximum altitude 05:27:52 82° 286° (WNW) 780 2.9 -21.0°
Drops below altitude 10° 05:32:56 10° 200° (SSW) 2,299 5.3 -20.2°
Sets 05:35:14 0° 200° (SSW) 3,221 6.1 -19.9°
